[[{"header":{"parameterUnit":"m.s-1","parameterCategory":1,"la1":30.2991,"la2":30.254,"lo1":-89.0895,"lo2":-89.0444,"dy":0.0017,"dx":0.0017,"nx":28,"ny":28,"refTime":"2025-03-30T21:00:00:Z","depth":0,"parameterNumber":2,"parameterNumberName":"U-component_of_WINDS"},"data":[0,0,0,0,0,0,0,0,0,0,0,0,0,0,0,0,0,0,0,0,0,0,0,0,0,0,0,0,0,0,0,0,0,0,0,0,0,0,0,0,0,0,0,0,0,0,0,0,0,0,0,0,0,0,0,0,0,0,0.8467,0.8466,0,0.8455,0.8455,0.8455,0.8455,0.8456,0.8456,0.8456,0.8444,0.8444,0.8443,0,0,0,0,0,0,0,0,0,0,0,0,0,0.849,0.8489,0.8467,0.8466,0.8466,0.8455,0.8455,0.8455,0.8455,0.8456,0.8456,0.8456,0.8444,0.8444,0.8443,0,0,0,0,0,0,0,0,0,0,0,0,0,0.8479,0.8489,0.8467,0.8465,0.8465,0.8455,0.8455,0.8455,0.8455,0.8456,0.8456,0.8456,0.8444,0.8444,0.8443,0.8434,0,0,0.8441,0.8441,0,0,0,0,0,0,0,0,0.848,0.8478,0.8466,0.8465,0.8465,0.8457,0.8459,0.8448,0.8455,0.8459,0.8456,0.8456,0.8448,0.8447,0.8444,0.8433,0.8433,0.8441,0.844,0.844,0.844,0,0,0,0,0,0,0,0.8481,0.8479,0.8462,0.8465,0.8465,0.8466,0.8464,0.8457,0.8452,0.8459,0.8459,0.8457,0.8448,0.8445,0.8444,0.8433,0.8441,0.844,0.844,0.844,0.8415,0.8415,0,0,0,0,0,0,0.8482,0.8479,0.8462,0.8462,0.8473,0.8465,0.8464,0.8459,0.8452,0.8452,0.8457,0.8457,0.8446,0.8445,0.8444,0.8434,0.844,0.8439,0.8439,0.8415,0.8415,0.8415,0,0,0,0,0,0,0.8482,0.848,0.8463,0.8471,0.8468,0.8464,0.846,0.8459,0.8456,0.8451,0.8451,0.8455,0.8446,0.8445,0.8437,0.8433,0.8439,0.8438,0.8416,0.8415,0.8415,0.8412,0,0,0,0,0,0,0.8483,0.848,0.8476,0.8471,0.8468,0.8456,0.8459,0.8459,0.8455,0.8455,0.8449,0.8448,0.8446,0.8438,0.8436,0.8432,0.8438,0.8416,0.8415,0.8415,0.8413,0.8412,0.8411,0,0,0,0,0,0.8484,0.8476,0.8476,0.8474,0.8463,0.8455,0.8454,0.8452,0.8455,0.8451,0.8448,0.8448,0.8434,0.8437,0.8435,0.8431,0.8416,0.8416,0.8415,0.8413,0.8412,0.8411,0,0,0,0,0,0,0.848,0.8475,0.8475,0.8465,0.8461,0.8455,0.8451,0.8451,0.8446,0.8446,0.8444,0.8443,0.8435,0.8432,0.8436,0.8423,0.8425,0.8424,0.8425,0.8424,0.8423,0.8424,0.8437,0,0,0,0,0,0.8479,0.8473,0.8468,0.846,0.8458,0.8455,0.8451,0.845,0.8446,0.8444,0.844,0.8436,0.8431,0.8427,0.8422,0.8413,0.8412,0.8409,0.8408,0.8408,0.8407,0.8403,0.8402,0.8413,0.8413,0.8413,0,0,0.8475,0.8471,0.8467,0.8459,0.8456,0.845,0.8453,0.8446,0.8443,0.8443,0.8435,0.8433,0.8428,0.842,0.8416,0.8417,0.8404,0.8407,0.8407,0.8406,0.8403,0.8402,0.8401,0.8413,0.8413,0.8413,0,0,0.8465,0.8461,0.8454,0.8451,0.8446,0.8444,0.8443,0.8438,0.8436,0.8429,0.8429,0.8425,0.8415,0.8412,0.8409,0.8401,0.8401,0.8399,0.8395,0.8392,0.8391,0.839,0.8387,0.8387,0.8398,0.8398,0.8398,0,0.846,0.8452,0.8451,0.8445,0.8442,0.8442,0.8436,0.8433,0.8426,0.8424,0.8426,0.8415,0.8412,0.8404,0.8402,0.8399,0.8398,0.8399,0.8391,0.839,0.8389,0.8387,0.8386,0.8398,0.8398,0.8398,0.8398,0,0.8447,0.8441,0.8437,0.8431,0.8427,0.8421,0.842,0.8416,0.8416,0.8415,0.8408,0.8404,0.8399,0.8397,0.8396,0.8389,0.839,0.8391,0.8394,0.8388,0.8386,0.8385,0.8398,0.8398,0.8398,0.8398,0,0,0.8434,0.8429,0.8427,0.8425,0.8421,0.8416,0.8411,0.8406,0.8404,0.84,0.8395,0.8388,0.839,0.8387,0.8386,0.8383,0.8377,0.8385,0.8385,0.8384,0.837,0.8369,0.8368,0.8378,0.8378,0.8378,0.8371,0,0.8424,0.8414,0.8413,0.8405,0.84,0.8401,0.8397,0.8394,0.8393,0.8389,0.8388,0.8383,0.8385,0.8383,0.838,0.8379,0.8375,0.8379,0.8374,0.8374,0.8376,0.8367,0.8366,0.8359,0.837,0.837,0.837,0,0.841,0.8407,0.8398,0.8395,0.8393,0.8389,0.8385,0.8382,0.8379,0.8378,0.8376,0.8376,0.8371,0.8374,0.8368,0.8371,0.837,0.8369,0.8369,0.8368,0.8371,0.8367,0.8357,0.8356,0.8368,0.8368,0.8368,0,0.8402,0.8395,0.8389,0.8387,0.8384,0.8382,0.838,0.8378,0.8375,0.8372,0.8371,0.8367,0.8365,0.8363,0.8362,0.8365,0.8356,0.8359,0.8356,0.8356,0.8354,0.8354,0.8345,0.8353,0.8353,0.8353,0.8353,0,0.8391,0.8386,0.8386,0.8382,0.8376,0.8377,0.8371,0.837,0.8368,0.8365,0.8366,0.8362,0.8362,0.8359,0.8359,0.8354,0.8353,0.8353,0.8353,0.8353,0.8353,0.8352,0.8352,0.8353,0.8353,0.8353,0.8353,0,0.8381,0.8381,0.8374,0.8373,0.8372,0.8368,0.8367,0.8363,0.8363,0.8359,0.8358,0.8357,0.8354,0.8353,0.8349,0.8349,0.8344,0.8344,0.8345,0.8345,0.8342,0.8342,0.8331,0.833,0.8339,0.8339,0.8338,0,0.8374,0.837,0.8368,0.8366,0.8365,0.8361,0.8359,0.836,0.8358,0.8355,0.8353,0.8349,0.8347,0.8342,0.8341,0.8338,0.8339,0.8335,0.8338,0.8339,0.8339,0.8339,0.8339,0.8334,0.8334,0.8334,0.8334,0,0.8362,0.8363,0.8359,0.8357,0.8355,0.8352,0.835,0.8349,0.8349,0.8347,0.8344,0.8342,0.8338,0.8335,0.8333,0.8332,0.8333,0.8333,0.8332,0.8332,0.8333,0.8333,0.8343,0.8333,0.8333,0.8333,0.8333,0.8333,0.8353,0.8351,0.8349,0.8346,0.8345,0.8344,0.8341,0.8341,0.8338,0.8335,0.8336,0.8333,0.8331,0.8328,0.8327,0.8325,0.8326,0.8325,0.8325,0.8325,0.8325,0.8333,0.8325,0.8325,0.8325,0.8325,0.8325,0,0.8342,0.8342,0.8339,0.8337,0.8335,0.8337,0.8335,0.8333,0.833,0.8329,0.8327,0.8324,0.8322,0.8321,0.8319,0.8318,0.8318,0.8317,0.8317,0.8317,0.8323,0.8324,0.8317,0.8317,0.8317,0.8317,0.8317,0.8317,0.8336,0.8331,0.8332,0.8327,0.8327,0.8324,0.8323,0.8322,0.8321,0.8318,0.8316,0.8316,0.8316,0.8314,0.8312,0.8312,0.8311,0.831,0.831,0.8316,0.8317,0.8317,0.8318,0.831,0.831,0.8305,0.8305,0.8304]},{"header":{"parameterUnit":"m.s-1","parameterCategory":1,"la1":30.2991,"la2":30.254,"lo1":-89.0895,"lo2":-89.0444,"dy":0.0017,"dx":0.0017,"nx":28,"ny":28,"refTime":"2025-03-30T21:00:00:Z","depth":0,"parameterNumber":3,"parameterNumberName":"V-component_of_WINDS"},"data":[0,0,0,0,0,0,0,0,0,0,0,0,0,0,0,0,0,0,0,0,0,0,0,0,0,0,0,0,0,0,0,0,0,0,0,0,0,0,0,0,0,0,0,0,0,0,0,0,0,0,0,0,0,0,0,0,0,0,3.04,3.04,0,3.042,3.0421,3.0421,3.0431,3.0431,3.0431,3.0431,3.0451,3.0451,3.0452,0,0,0,0,0,0,0,0,0,0,0,0,0,3.0369,3.0369,3.04,3.04,3.04,3.042,3.0421,3.0421,3.0431,3.0431,3.0431,3.0431,3.045,3.0451,3.0452,0,0,0,0,0,0,0,0,0,0,0,0,0,3.0385,3.0369,3.04,3.0408,3.0409,3.042,3.0421,3.0421,3.0431,3.0431,3.0431,3.0431,3.045,3.0451,3.0452,3.0456,0,0,3.0454,3.0454,0,0,0,0,0,0,0,0,3.0384,3.0386,3.0406,3.0407,3.0408,3.0423,3.0417,3.0433,3.0431,3.0423,3.0431,3.0431,3.0441,3.0443,3.0447,3.0457,3.0458,3.0454,3.0455,3.0455,3.0455,0,0,0,0,0,0,0,3.0383,3.0385,3.0408,3.0407,3.0408,3.041,3.0413,3.042,3.0432,3.0423,3.0424,3.0426,3.0442,3.0446,3.0447,3.0458,3.0454,3.0455,3.0455,3.0456,3.0476,3.0476,0,0,0,0,0,0,3.0381,3.0384,3.0407,3.0408,3.0396,3.0411,3.0413,3.0418,3.0432,3.0434,3.0426,3.0427,3.0445,3.0446,3.0448,3.0455,3.0455,3.0456,3.0456,3.0476,3.0476,3.0476,0,0,0,0,0,0,3.038,3.0383,3.0406,3.0397,3.04,3.0411,3.0417,3.0419,3.0423,3.0434,3.0436,3.0428,3.0445,3.0447,3.0455,3.0456,3.0456,3.0457,3.0475,3.0476,3.0476,3.047,0,0,0,0,0,0,3.0379,3.0382,3.0384,3.0397,3.04,3.0413,3.0417,3.0419,3.0424,3.0425,3.0436,3.0438,3.0445,3.0454,3.0455,3.0457,3.0457,3.0475,3.0476,3.0476,3.047,3.0469,3.0469,0,0,0,0,0,3.0378,3.0381,3.0384,3.0387,3.0403,3.0413,3.0415,3.0423,3.0424,3.0426,3.0434,3.0438,3.0456,3.0454,3.0457,3.0458,3.0475,3.0475,3.0476,3.047,3.0469,3.0469,0,0,0,0,0,0,3.0367,3.0382,3.0386,3.0393,3.0402,3.0415,3.0417,3.0422,3.043,3.043,3.0439,3.0442,3.0449,3.0455,3.0453,3.0465,3.0466,3.0467,3.0461,3.0461,3.046,3.0459,3.0458,0,0,0,0,0,3.0366,3.0373,3.0386,3.0391,3.0395,3.0405,3.041,3.0416,3.0425,3.0428,3.0436,3.0444,3.0452,3.0456,3.0464,3.0471,3.0474,3.0473,3.0473,3.0473,3.0473,3.0478,3.0479,3.0476,3.0476,3.0476,0,0,3.0362,3.0372,3.0375,3.0389,3.0396,3.0403,3.0408,3.0415,3.0421,3.0429,3.0437,3.0443,3.0453,3.0461,3.0465,3.0466,3.0475,3.0473,3.0473,3.0473,3.0479,3.0479,3.0479,3.0476,3.0476,3.0476,0,0,3.036,3.0368,3.0374,3.0381,3.0393,3.04,3.0401,3.0414,3.0419,3.0427,3.0434,3.0441,3.0453,3.046,3.0466,3.0469,3.0473,3.0471,3.0469,3.0475,3.0475,3.0475,3.0477,3.0477,3.0471,3.0471,3.0471,0,3.0355,3.0366,3.0376,3.0383,3.0389,3.0398,3.0404,3.0411,3.0424,3.0428,3.0429,3.0446,3.0453,3.0464,3.0465,3.0468,3.047,3.0469,3.0474,3.0474,3.0475,3.0477,3.0477,3.0471,3.0471,3.0471,3.0471,0,3.036,3.0368,3.0371,3.0385,3.0391,3.0398,3.0408,3.0414,3.0419,3.0426,3.0436,3.0445,3.0455,3.0458,3.0463,3.0469,3.047,3.0472,3.0474,3.0475,3.0477,3.0477,3.047,3.047,3.0471,3.0471,0,0,3.035,3.0371,3.0372,3.0379,3.0393,3.0399,3.0406,3.0417,3.0422,3.0431,3.0438,3.0449,3.0452,3.0458,3.0464,3.0469,3.0472,3.0471,3.0471,3.0471,3.0481,3.0479,3.048,3.0475,3.0475,3.0475,3.048,0,3.0351,3.0365,3.0375,3.0386,3.0394,3.0403,3.041,3.0419,3.0426,3.0434,3.0442,3.0451,3.0453,3.0457,3.0462,3.047,3.0474,3.047,3.0482,3.0482,3.0479,3.0481,3.0479,3.0483,3.0481,3.0481,3.0481,0,3.0353,3.0363,3.0375,3.039,3.0394,3.04,3.0411,3.0419,3.043,3.0435,3.0443,3.0449,3.0458,3.0459,3.0471,3.0469,3.0474,3.0479,3.0479,3.0481,3.0482,3.0483,3.0484,3.0485,3.0482,3.0482,3.0482,0,3.0346,3.0363,3.0373,3.0378,3.0395,3.0399,3.0407,3.0418,3.0425,3.0435,3.0439,3.045,3.0455,3.0464,3.0473,3.0473,3.0485,3.0486,3.049,3.0489,3.0492,3.0491,3.0495,3.0494,3.0494,3.0494,3.0494,0,3.0346,3.0353,3.037,3.0376,3.0384,3.0396,3.0404,3.0412,3.0422,3.043,3.0438,3.0445,3.0457,3.0466,3.0473,3.0483,3.0485,3.049,3.0491,3.0489,3.0489,3.0493,3.0493,3.0494,3.0494,3.0494,3.0494,0,3.034,3.0351,3.0362,3.0379,3.0383,3.0389,3.0402,3.0409,3.0417,3.0427,3.043,3.0443,3.0454,3.0464,3.0478,3.0483,3.0493,3.0495,3.0489,3.049,3.0493,3.0493,3.05,3.0502,3.0499,3.0499,3.0499,0,3.0339,3.0345,3.0362,3.0369,3.0376,3.0386,3.0393,3.0405,3.0412,3.0426,3.0431,3.0443,3.0452,3.0469,3.048,3.0491,3.0494,3.0495,3.0495,3.0493,3.0495,3.0495,3.0496,3.0495,3.0495,3.0495,3.0495,0,3.0337,3.0343,3.0353,3.0366,3.0375,3.0385,3.0396,3.04,3.0414,3.0422,3.0434,3.0441,3.0457,3.0468,3.0481,3.0488,3.0494,3.0495,3.0497,3.0494,3.0491,3.0494,3.0489,3.0495,3.0495,3.0495,3.0495,3.0495,3.0333,3.034,3.0354,3.0365,3.0375,3.0385,3.0393,3.0403,3.0413,3.0427,3.0433,3.0445,3.0458,3.0476,3.0483,3.0493,3.0494,3.0496,3.0496,3.0497,3.0497,3.049,3.0495,3.0495,3.0495,3.0495,3.0495,0,3.0332,3.0342,3.0353,3.0369,3.0378,3.0384,3.0396,3.0404,3.0415,3.0426,3.0436,3.0451,3.0462,3.0475,3.0487,3.0493,3.0496,3.0496,3.0495,3.0497,3.0494,3.0492,3.0493,3.0493,3.0493,3.0493,3.0493,3.0493,3.0333,3.0345,3.0352,3.0369,3.0379,3.0392,3.0398,3.0408,3.0418,3.0433,3.0444,3.0452,3.0464,3.0478,3.0489,3.0492,3.0497,3.0496,3.05,3.0497,3.0497,3.0497,3.0496,3.0497,3.0497,3.0502,3.0503,3.0503]}]]